Observations
| Time | Sensor | AQI | SAQ | Temp °C | Hum % | Pres Pa | CO μg/m³ | H₂S μg/m³ | NO μg/m³ | NO₂ μg/m³ | O₃ μg/m³ | SO₂ μg/m³ | CO₂e PPM | VOC PPM | PM1 μg/m³ | PM2.5 μg/m³ | PM4 μg/m³ | PM10 μg/m³ | TPS µm |
|---|---|---|---|---|---|---|---|---|---|---|---|---|---|---|---|---|---|---|---|
| Thursday 13 August 2026 | |||||||||||||||||||
| 07:11 | Trim Patrick St | 2 | 21.2 | 75 | 38,460 | 0 | 1.27 | 1.49 | 18.42 | 24.19 | 3.55 | 5.43 | 9.08 | 9.99 | |||||
| 07:10 | Trim Patrick St | 2 | 21.1 | 75 | 38,460 | 0 | 2.04 | 1.46 | 13.14 | 28.77 | 4.1 | 6.29 | 9.78 | 10.76 | |||||
| 07:09 | Trim Patrick St | 2 | 21.1 | 76 | 38,460 | 0 | 0 | 1.53 | 4.23 | 32.04 | 4.62 | 3.71 | 7.64 | 8.41 | |||||
| 07:08 | Trim Patrick St | 2 | 21.1 | 75 | 38,460 | 0 | 2.46 | 1.56 | 12.68 | 29.18 | 4.25 | 7.14 | 11.2 | 12.32 | |||||
| 07:07 | Trim Patrick St | 2 | 21.1 | 75 | 38,460 | 0 | 2.54 | 1.51 | 15.1 | 26.98 | 4.15 | 7.14 | 11.23 | 12.35 | |||||
| 07:06 | Trim Patrick St | 2 | 21.1 | 75 | 38,460 | 0 | 0 | 1.48 | 11.2 | 26.59 | 3.99 | 5.43 | 11.22 | 12.35 | |||||
| 07:06 | Trim Market St | 2 | 21.5 | 73 | 45,121 | 0 | 0 | 1.35 | 6 | 39.06 | 0 | 2.85 | 4.36 | 7.53 | |||||
| 07:05 | Trim Patrick St | 2 | 21.1 | 75 | 38,460 | 0 | 1.52 | 1.47 | 7.8 | 32.59 | 4.49 | 6.29 | 9.82 | 10.8 | |||||
| 07:05 | Trim Market St | 2 | 21.4 | 73 | 44,952 | 0.01 | 0 | 1.32 | 6.84 | 39.37 | 0 | 4.28 | 5.33 | 10.58 | |||||
| 07:04 | Trim Patrick St | 2 | 21 | 75 | 38,460 | 0 | 0.49 | 1.49 | 11.82 | 28.26 | 3.31 | 7.14 | 10.52 | 11.57 | |||||
| 07:04 | Trim Market St | 2 | 21.4 | 73 | 44,756 | 0.01 | 0 | 1.29 | 4.23 | 39.48 | 0 | 3.56 | 5.33 | 8.75 | |||||
| 07:03 | Trim Patrick St | 2 | 21 | 75 | 38,460 | 0 | 1.41 | 1.57 | 13.89 | 25.93 | 3.92 | 6.29 | 10.49 | 11.54 | |||||
| 07:03 | Trim Market St | 2 | 21.4 | 73 | 44,474 | 0.01 | 0 | 1.36 | 2.95 | 37.67 | 0 | 2.85 | 4.84 | 8.14 | |||||
| 07:02 | Trim Patrick St | 2 | 21 | 75 | 38,460 | 0 | 0.04 | 1.69 | 2.85 | 28.75 | 4.35 | 5.43 | 9.78 | 10.76 | |||||
| 07:02 | Trim Market St | 2 | 21.4 | 73 | 44,226 | 0.01 | 0 | 1.3 | 7.62 | 41.28 | 0 | 3.56 | 5.32 | 8.14 | |||||
| 07:01 | Trim Patrick St | 2 | 21 | 74 | 38,460 | 0 | 2.2 | 1.64 | 14.83 | 30.37 | 3.86 | 6.29 | 10.56 | 11.62 | |||||
| 07:01 | Trim Market St | 2 | 21.4 | 73 | 44,048 | 0 | 0 | 1.33 | 3.94 | 41.38 | 0 | 2.85 | 4.84 | 7.53 | |||||
| 07:00 | Trim Patrick St | 2 | 21 | 76 | 38,460 | 0 | 0 | 1.81 | 2.85 | 31.76 | 4.05 | 6.29 | 10.48 | 11.53 | |||||
| 07:00 | Trim Market St | 2 | 21.4 | 73 | 43,981 | 0 | 0 | 1.33 | 3.11 | 40.94 | 0 | 3.56 | 4.35 | 8.14 | |||||
| 06:59 | Trim Patrick St | 2 | 21 | 76 | 38,460 | 0 | 0.7 | 1.77 | 16 | 23.58 | 3.52 | 7.14 | 11.17 | 12.29 | |||||